SCP
-0 -0 -0 -0 -0 -0 -0 0 0 0 0 0 -0 -0 0 0 0 -0 -0 0 0 -0 -0 0 0 -0 0 -0 -0 -0 0 0 0 0 0 0 0 0 0 0 0 0 0 0
-0 -0 -0 -0 -0 -0 0 0 0 0 0 -0 0 0 0 0 0 -0 -0 -0 -0 0 -0 -0 0 0 -0 0 -0 -0 0 0 0 0 0 0 0 0 0 0 0 -0 -0 -0
-0 -0 -0 -0 -0 -0 0 0 0 0 0 0 0 0 0 0 0 -0 0 -0 -0 0 0 -0 0 0 0 0 0 0 0 0 0 0 -0 0 0 0 0 0 0 0 -0 -0
-0 -0 -0 -0 -0 -0 0 0 0 0 0 0 0 0 0 0 0 0 0 0 0 -0 0 0 -0 0 0 0 0 0 0 0 0 0 0 0 0 0 0 0 0 0 0 -0
0 0 -0 -0 -0 -0 0 0 0 0 0 0 0 0 0 0 0 0 0 0 0 -0 -0 0 0 0 0 0 0 0 0 0 0 0 0 0 0 0 0 0 0 0 0 0
0 0 0 0 0 0 0 0 0 0 0 0 0 0 0 0 0 0 0 0 0 -0 0 0 0 0 0 0 0 0 0 0 0 0 0 0 0 0 0 0 0 -0 0 0
0 0 0 0 0 0 0 0 0 0 0 0 0 0 0 0 0 0 0 0 0 0 -0 0 0 0 0 0 0 0 0 0 0 0 0 0 0 0 0 0 0 0 0 0
0 0 0 0 0 0 0 0 0 0 0 0 0 0 0 0 0 0 0 -0 0 0 0 0 0 0 0 0 0 0 0 0 0 0 0 0 0 0 0 0 0 0 0 0
0 0 0 0 0 0 0 0 0 0 0 0 0 0 0 0 0 -0 0 0 0 0 0 0 0 0 0 0 0 0 0 0 0 0 0 0 0 0 0 0 0 0 0 0
0 0 0 0 0 0 0 0 0 0 0 0 0 0 0 0 0 0 -0 0 0 0 0 0 0 0 0 -0 0 0 0 0 0 0 0 0 0 0 0 0 0 0 0 0
0 0 0 0 0 0 -0 0 0 0 0 0 0 0 0 0 0 0 0 0 0 0 0 0 0 0 0 0 0 0 0 0 0 0 0 0 0 0 0 0 0 0 0 0
0 0 0 0 0 0 0 0 0 0 0 0 0 0 0 0 0 0 0 0 0 0 0 0 0 0 0 0 0 0 0 0 0 0 0 0 0 0 0 0 0 0 0 0
0 0 0 0 0 0 0 0 -0 -0 -0 -0 -0 0 0 0 0 0 0 0 0 0 0 0 0 0 0 0 0 0 0 0 0 0 0 0 0 0 0 0 0 0 0 -0
0 0 0 0 0 0 0 0 0 0 0 -0 -0 -0 0 0 0 0 0 0 0 0 0 0 0 0 0 0 0 0 0 0 0 0 0 0 0 0 0 0 0 -0 0 0
0 0 0 0 0 0 0 0 0 0 0 -0 -0 -0 0 0 0 0 0 0 0 0 0 0 0 0 0 0 0 0 0 0 0 0 0 0 0 0 0 0 0 -0 0 0
0 0 0 0 0 0 -0 0 0 0 0 0 -0 -0 0 0 0 0 0 0 0 0 0 0 0 0 0 0 0 0 0 0 0 0 0 0 0 0 0 0 0 -0 0 0
0 0 0 0 0 0 0 0 0 0 0 0 -0 -0 -0 0 0 0 0 0 0 0 0 0 0 0 0 0 0 0 0 0 0 0 0 0 0 0 -0 -0 -0 -0 0 0
0 0 0 0 0 0 0 0 0 0 0 0 0 -0 0 0 0 0 0 0 0 0 0 0 0 0 0 0 0 0 0 0 0 0 0 0 0 0 -0 -0 -0 -0 -0 -0
0 0 0 0 0 0 0 0 0 0 0 0 0 -0 0 0 0 0 0 0 0 0 0 0 0 0 0 0 0 0 0 0 0 0 0 0 0 0 0 0 -0 -0 -0 -0
0 0 0 0 0 0 0 0 0 0 0 0 0 0 0 0 0 0 0 0 0 0 0 0 0 0 0 0 0 0 0 0 0 0 0 0 0 0 0 0 0 -0 -0 -0
0 0 0 0 -0 -0 -0 -0 -0 0 0 0 0 0 0 -0 0 0 0 0 0 0 0 0 0 0 0 0 0 0 0 0 0 0 0 0 0 0 0 0 -0 -0 -0 -0
0 0 0 0 0 -0 -0 -0 -0 -0 0 0 0 0 -0 -0 -0 0 0 0 0 0 0 0 0 0 0 0 0 0 0 0 0 0 0 0 0 0 0 0 -0 -0 -0 -0
0 0 0 0 -0 -0 -0 -0 -0 -0 0 -0 0 0 0 0 -0 0 0 0 0 0 0 0 0 0 0 0 0 0 0 0 0 0 0 0 0 0 0 0 0 0 0 0
0 0 0 0 0 -0 -0 -0 0 -0 -0 -0 0 0 0 0 0 -0 -0 0 0 0 0 0 0 0 0 0 0 0 0 0 0 0 0 0 0 0 0 0 0 0 0 0
0 0 0 0 0 0 0 -0 -0 -0 0 0 0 0 0 0 0 -0 0 0 1 0 0 0 0 0 0 0 0 0 0 0 0 0 0 0 0 0 0 0 0 0 0 0
0 0 0 0 0 0 -0 0 0 -0 0 0 0 0 0 0 0 0 0 0 0 0 0 0 0 0 0 0 0 0 0 0 0 0 0 0 0 0 0 0 0 0 0 0
0 0 0 -0 0 0 0 0 0 -0 0 0 0 0 0 0 0 0 0 0 0 0 0 0 0 0 0 0 0 0 0 0 0 0 0 0 0 0 0 0 0 0 0 0
Wind_Speed_500mb
65 65 65 61 58 47 39 18 6 10 23 3 2 4 9 9 6 10 6 3 3 8 9 8 13 11 17 22 28 24 16 10 10 21 6 7 9 15 11 10 10 5 3 12
62 65 64 59 52 51 47 31 6 4 21 1 6 11 10 8 6 4 4 2 5 5 9 7 8 3 14 19 23 26 18 6 4 19 13 6 5 11 9 12 7 10 10 11
62 62 63 60 50 40 33 13 8 4 21 4 1 10 9 11 12 4 7 6 14 11 10 1 8 4 7 13 9 24 26 9 16 16 12 8 4 9 10 12 8 10 12 2
59 62 63 61 53 35 21 13 5 6 7 7 7 6 5 7 9 3 8 9 9 5 7 14 10 4 8 11 13 8 9 13 11 8 10 8 11 11 16 14 14 13 17 17
55 58 62 59 57 40 12 15 16 17 13 19 12 3 10 7 9 7 3 6 17 0 12 20 12 5 5 1 10 6 6 5 4 8 8 2 9 14 17 10 9 6 13 7
53 51 54 59 57 50 20 23 9 8 13 10 3 6 9 10 26 15 14 12 13 30 30 40 46 14 6 6 4 2 6 10 6 7 6 11 7 8 8 4 8 9 12 15
57 50 48 51 50 49 42 30 18 9 9 5 3 12 21 24 15 13 44 22 11 54 53 17 5 4 7 8 13 7 10 8 4 6 6 4 11 6 7 16 9 7 9 10
48 52 46 41 43 39 38 32 11 7 8 11 18 13 18 42 50 13 15 42 49 52 22 6 8 11 13 6 12 13 5 10 6 8 2 10 6 12 12 11 5 13 13 9
41 42 47 44 39 39 29 18 18 8 9 11 12 14 16 8 10 15 17 23 25 26 6 6 11 10 10 9 5 11 3 9 8 5 8 12 15 8 8 4 4 20 32 26
39 39 40 44 44 42 37 9 22 12 13 35 26 12 12 13 7 7 17 28 12 20 5 5 8 10 11 7 9 10 3 6 9 6 5 12 11 9 9 8 11 24 49 52
38 38 38 39 42 43 46 29 9 15 15 63 69 49 29 23 16 5 20 26 5 5 4 7 8 8 11 4 9 14 16 13 7 5 6 9 24 11 10 9 4 27 51 67
37 39 40 39 39 42 47 48 29 33 33 58 78 77 68 72 61 45 17 16 23 11 5 2 4 5 1 6 5 2 4 14 12 15 15 9 83 3 21 13 22 42 59 56
37 39 42 44 43 41 43 56 57 37 25 51 56 56 53 52 63 65 31 24 20 0 20 6 4 5 8 6 10 3 5 9 6 6 1 11 63 16 41 14 12 34 45 47
39 39 42 45 48 47 48 55 58 55 23 15 30 54 62 39 43 54 75 92 75 71 55 13 6 5 14 8 7 5 8 7 10 3 6 24 16 43 33 27 30 34 37 45
41 43 45 48 49 53 58 63 48 39 34 12 31 84 94 69 67 76 82 73 76 47 13 7 8 6 6 0 5 5 7 11 9 10 25 13 34 44 42 37 39 34 32 38
44 46 49 50 49 52 57 18 12 10 21 15 8 29 84 76 62 55 74 82 77 53 19 16 13 8 5 5 5 12 15 13 14 8 39 28 48 53 44 34 33 32 37 30
45 48 52 52 50 51 40 23 9 23 31 11 15 14 24 32 37 60 67 62 49 46 34 19 10 11 12 6 5 11 10 10 17 19 41 35 56 58 49 43 36 29 35 33
49 53 55 57 57 60 64 53 18 16 32 14 9 10 19 14 13 22 49 47 51 33 35 12 16 6 4 6 19 23 18 7 17 38 54 73 68 62 57 55 46 40 33 25
48 53 53 51 13 7 14 43 43 34 26 12 12 7 8 31 17 13 23 44 8 20 10 14 21 8 11 16 30 30 31 11 32 28 51 63 65 66 65 64 56 56 47 43
44 46 14 10 6 31 62 13 13 20 22 19 14 34 15 37 27 11 15 6 10 9 11 31 7 9 32 30 42 43 39 30 36 42 47 67 66 60 69 74 68 69 61 55
23 11 11 28 53 45 10 11 11 13 8 15 16 23 16 26 6 6 11 6 7 10 11 16 8 8 17 45 39 52 51 40 50 48 45 53 57 56 62 78 75 70 65 58
26 30 49 31 10 9 7 7 8 8 7 5 7 13 14 11 8 4 10 7 6 11 10 10 5 7 28 56 53 33 52 41 52 52 49 45 52 63 62 59 60 65 55 57
28 9 8 7 8 5 3 7 5 5 16 19 31 12 7 7 10 6 9 11 7 3 5 12 4 24 36 11 33 56 46 42 43 52 50 46 55 59 57 51 49 49 53 48
7 7 10 5 8 8 6 9 11 20 30 42 40 17 7 7 4 4 8 9 6 6 7 6 9 42 52 36 19 28 60 56 57 63 62 61 61 60 54 50 45 42 43 47
6 6 7 6 4 25 35 39 18 32 41 42 19 14 8 5 6 1 6 7 8 5 6 5 34 52 54 51 36 25 47 71 72 71 71 73 70 65 57 50 44 39 40 43
6 10 9 19 17 23 22 37 26 35 64 35 6 5 5 5 7 7 10 8 15 10 8 34 47 49 57 58 32 22 50 81 80 83 79 75 69 61 53 44 38 36 35 43
8 11 20 37 42 35 37 49 44 28 30 5 6 9 4 7 4 6 6 4 10 29 37 38 41 44 51 58 27 16 47 87 86 84 76 69 62 54 48 47 42 38 33 31
Wind_Direction_500mb
0 359 358 354 341 344 353 2 15 142 160 42 29 223 208 306 319 320 325 58 199 221 200 217 195 220 223 174 154 166 194 156 240 238 233 101 196 187 149 126 236 246 173 277
359 360 0 2 353 349 352 341 323 212 201 254 288 279 281 232 336 260 106 308 123 35 275 246 254 153 267 313 171 168 176 225 303 333 352 70 184 219 135 105 97 200 152 259
358 359 0 3 0 350 348 349 359 43 192 218 318 1 305 312 302 160 346 225 74 24 316 305 273 245 284 300 87 154 139 130 165 200 211 144 166 255 179 149 139 177 228 296
356 357 358 1 8 357 356 1 16 16 304 316 339 241 251 293 294 248 282 59 134 123 307 316 259 224 282 23 37 75 119 174 172 179 138 150 210 245 238 175 188 166 225 176
357 356 357 0 5 11 31 19 5 345 297 300 318 359 217 236 277 245 286 91 299 282 226 207 288 165 290 48 357 77 347 172 171 114 27 202 211 225 275 215 167 68 109 121
358 357 356 358 3 13 34 10 4 337 300 326 349 256 310 292 316 250 250 271 321 306 257 252 257 197 175 156 219 73 65 120 86 257 349 279 298 299 284 45 102 140 144 204
349 358 357 355 1 8 5 3 352 340 278 292 299 322 316 300 319 292 284 277 194 275 293 241 243 189 270 210 242 202 121 95 95 193 4 215 248 310 98 116 78 6 64 97
342 346 357 355 349 -0 5 3 358 334 285 310 297 312 304 311 308 262 262 283 275 285 219 67 15 340 351 245 243 227 259 128 77 122 114 300 309 259 181 174 223 168 125 135
348 344 343 352 347 340 358 345 344 324 318 249 327 323 286 282 305 318 270 283 310 166 100 98 165 209 223 291 108 53 47 70 122 136 143 197 234 261 285 207 317 191 149 156
347 347 344 342 347 342 343 14 318 301 276 275 297 257 293 301 325 267 299 331 342 216 117 143 165 231 198 220 197 166 96 27 142 157 157 283 237 195 231 120 238 154 162 163
345 349 347 342 339 340 336 343 280 351 281 276 272 263 269 283 278 268 326 332 323 344 124 152 206 193 215 173 199 180 165 146 186 122 75 262 155 134 205 198 77 192 178 177
334 338 341 341 338 333 325 320 307 297 270 267 284 278 269 262 262 278 284 278 312 283 47 231 135 216 132 150 256 315 185 177 179 166 205 224 173 161 159 129 180 178 183 178
322 327 331 333 332 328 323 312 315 318 285 296 281 280 284 278 261 252 243 268 246 174 5 331 253 215 136 170 245 250 290 134 131 111 266 207 190 192 198 228 210 172 182 172
310 314 320 324 326 323 317 311 307 295 269 264 280 284 273 268 243 232 235 246 257 277 305 277 233 204 197 200 214 198 208 135 148 282 43 93 179 209 204 198 176 161 164 167
301 304 310 315 317 316 310 310 296 274 224 283 292 291 284 281 258 250 235 237 246 256 266 237 239 197 148 218 67 286 193 172 139 208 199 168 181 177 175 177 183 183 181 182
300 302 304 308 311 313 317 311 314 261 215 285 284 287 287 278 260 247 237 239 241 224 215 218 241 223 143 116 187 261 237 219 213 179 182 187 171 170 175 177 178 192 195 188
303 303 306 305 303 297 280 260 267 221 306 309 286 263 268 295 272 235 233 229 217 215 218 229 249 207 167 114 186 227 218 294 255 227 174 156 168 175 172 163 157 173 202 197
303 309 307 305 295 285 276 286 269 266 264 235 268 263 285 335 243 198 208 213 207 217 212 191 181 203 116 210 233 251 260 286 180 166 178 171 173 174 173 179 171 172 181 197
306 311 313 301 285 277 317 313 293 288 216 231 246 255 283 350 343 277 193 189 165 187 166 192 163 173 210 210 188 220 230 210 174 161 185 177 176 181 182 185 180 175 167 162
315 317 305 271 246 315 312 284 214 205 210 232 243 258 277 322 350 305 337 189 174 160 213 142 149 213 216 205 197 204 220 187 172 147 146 167 179 183 186 187 186 182 175 171
332 302 269 286 299 305 248 254 229 174 232 228 242 249 247 273 245 269 290 313 250 136 207 150 194 235 204 206 211 211 200 197 185 188 172 177 179 184 189 194 196 195 193 188
303 297 293 303 298 260 228 250 272 226 239 254 252 262 245 265 196 247 301 249 271 173 147 118 192 256 200 209 214 211 203 195 199 192 189 181 190 194 189 182 188 195 197 197
317 299 284 262 267 280 283 301 278 263 338 350 329 314 279 251 201 216 218 244 247 328 132 157 86 350 347 2 222 232 219 210 202 198 183 182 175 179 179 167 167 173 189 194
311 310 292 272 286 6 235 276 321 338 336 331 313 284 286 298 243 216 297 309 221 170 116 74 354 339 338 334 303 247 227 214 205 196 189 179 174 172 180 189 189 190 192 198
281 281 257 258 77 306 286 310 310 352 339 329 305 287 273 299 286 89 270 264 168 59 71 346 323 336 345 342 317 269 210 197 189 185 179 174 173 174 170 173 178 188 196 200
249 240 266 280 282 287 305 320 306 352 342 334 294 302 319 4 334 334 324 348 33 7 337 312 335 347 357 351 325 250 195 190 181 172 171 171 172 170 167 162 167 171 176 186
253 254 258 270 280 274 292 314 318 338 329 340 333 359 334 302 343 37 36 358 301 296 297 338 354 12 8 17 20 201 189 192 185 177 176 176 176 177 177 169 164 163 163 163
Wind_Speed_850mb
65 65 65 61 58 47 39 18 6 10 23 3 2 4 9 9 6 10 6 3 3 8 9 8 13 11 17 22 28 24 16 10 10 21 6 7 9 15 11 10 10 5 3 12
62 65 64 59 52 51 47 31 6 4 21 1 6 11 10 8 6 4 4 2 5 5 9 7 8 3 14 19 23 26 18 6 4 19 13 6 5 11 9 12 7 10 10 11
62 62 63 60 50 40 33 13 8 4 21 4 1 10 9 11 12 4 7 6 14 11 10 1 8 4 7 13 9 24 26 9 16 16 12 8 4 9 10 12 8 10 12 2
59 62 63 61 53 35 21 13 5 6 7 7 7 6 5 7 9 3 8 9 9 5 7 14 10 4 8 11 13 8 9 13 11 8 10 8 11 11 16 14 14 13 17 17
55 58 62 59 57 40 12 15 16 17 13 19 12 3 10 7 9 7 3 6 17 0 12 20 12 5 5 1 10 6 6 5 4 8 8 2 9 14 17 10 9 6 13 7
53 51 54 59 57 50 20 23 9 8 13 10 3 6 9 10 26 15 14 12 13 30 30 40 46 14 6 6 4 2 6 10 6 7 6 11 7 8 8 4 8 9 12 15
57 50 48 51 50 49 42 30 18 9 9 5 3 12 21 24 15 13 44 22 11 54 53 17 5 4 7 8 13 7 10 8 4 6 6 4 11 6 7 16 9 7 9 10
48 52 46 41 43 39 38 32 11 7 8 11 18 13 18 42 50 13 15 42 49 52 22 6 8 11 13 6 12 13 5 10 6 8 2 10 6 12 12 11 5 13 13 9
41 42 47 44 39 39 29 18 18 8 9 11 12 14 16 8 10 15 17 23 25 26 6 6 11 10 10 9 5 11 3 9 8 5 8 12 15 8 8 4 4 20 32 26
39 39 40 44 44 42 37 9 22 12 13 35 26 12 12 13 7 7 17 28 12 20 5 5 8 10 11 7 9 10 3 6 9 6 5 12 11 9 9 8 11 24 49 52
38 38 38 39 42 43 46 29 9 15 15 63 69 49 29 23 16 5 20 26 5 5 4 7 8 8 11 4 9 14 16 13 7 5 6 9 24 11 10 9 4 27 51 67
37 39 40 39 39 42 47 48 29 33 33 58 78 77 68 72 61 45 17 16 23 11 5 2 4 5 1 6 5 2 4 14 12 15 15 9 83 3 21 13 22 42 59 56
37 39 42 44 43 41 43 56 57 37 25 51 56 56 53 52 63 65 31 24 20 0 20 6 4 5 8 6 10 3 5 9 6 6 1 11 63 16 41 14 12 34 45 47
39 39 42 45 48 47 48 55 58 55 23 15 30 54 62 39 43 54 75 92 75 71 55 13 6 5 14 8 7 5 8 7 10 3 6 24 16 43 33 27 30 34 37 45
41 43 45 48 49 53 58 63 48 39 34 12 31 84 94 69 67 76 82 73 76 47 13 7 8 6 6 0 5 5 7 11 9 10 25 13 34 44 42 37 39 34 32 38
44 46 49 50 49 52 57 18 12 10 21 15 8 29 84 76 62 55 74 82 77 53 19 16 13 8 5 5 5 12 15 13 14 8 39 28 48 53 44 34 33 32 37 30
45 48 52 52 50 51 40 23 9 23 31 11 15 14 24 32 37 60 67 62 49 46 34 19 10 11 12 6 5 11 10 10 17 19 41 35 56 58 49 43 36 29 35 33
49 53 55 57 57 60 64 53 18 16 32 14 9 10 19 14 13 22 49 47 51 33 35 12 16 6 4 6 19 23 18 7 17 38 54 73 68 62 57 55 46 40 33 25
48 53 53 51 13 7 14 43 43 34 26 12 12 7 8 31 17 13 23 44 8 20 10 14 21 8 11 16 30 30 31 11 32 28 51 63 65 66 65 64 56 56 47 43
44 46 14 10 6 31 62 13 13 20 22 19 14 34 15 37 27 11 15 6 10 9 11 31 7 9 32 30 42 43 39 30 36 42 47 67 66 60 69 74 68 69 61 55
23 11 11 28 53 45 10 11 11 13 8 15 16 23 16 26 6 6 11 6 7 10 11 16 8 8 17 45 39 52 51 40 50 48 45 53 57 56 62 78 75 70 65 58
26 30 49 31 10 9 7 7 8 8 7 5 7 13 14 11 8 4 10 7 6 11 10 10 5 7 28 56 53 33 52 41 52 52 49 45 52 63 62 59 60 65 55 57
28 9 8 7 8 5 3 7 5 5 16 19 31 12 7 7 10 6 9 11 7 3 5 12 4 24 36 11 33 56 46 42 43 52 50 46 55 59 57 51 49 49 53 48
7 7 10 5 8 8 6 9 11 20 30 42 40 17 7 7 4 4 8 9 6 6 7 6 9 42 52 36 19 28 60 56 57 63 62 61 61 60 54 50 45 42 43 47
6 6 7 6 4 25 35 39 18 32 41 42 19 14 8 5 6 1 6 7 8 5 6 5 34 52 54 51 36 25 47 71 72 71 71 73 70 65 57 50 44 39 40 43
6 10 9 19 17 23 22 37 26 35 64 35 6 5 5 5 7 7 10 8 15 10 8 34 47 49 57 58 32 22 50 81 80 83 79 75 69 61 53 44 38 36 35 43
8 11 20 37 42 35 37 49 44 28 30 5 6 9 4 7 4 6 6 4 10 29 37 38 41 44 51 58 27 16 47 87 86 84 76 69 62 54 48 47 42 38 33 31
Wind_Direction_850mb
0 359 358 354 341 344 353 2 15 142 160 42 29 223 208 306 319 320 325 58 199 221 200 217 195 220 223 174 154 166 194 156 240 238 233 101 196 187 149 126 236 246 173 277
359 360 0 2 353 349 352 341 323 212 201 254 288 279 281 232 336 260 106 308 123 35 275 246 254 153 267 313 171 168 176 225 303 333 352 70 184 219 135 105 97 200 152 259
358 359 0 3 0 350 348 349 359 43 192 218 318 1 305 312 302 160 346 225 74 24 316 305 273 245 284 300 87 154 139 130 165 200 211 144 166 255 179 149 139 177 228 296
356 357 358 1 8 357 356 1 16 16 304 316 339 241 251 293 294 248 282 59 134 123 307 316 259 224 282 23 37 75 119 174 172 179 138 150 210 245 238 175 188 166 225 176
357 356 357 0 5 11 31 19 5 345 297 300 318 359 217 236 277 245 286 91 299 282 226 207 288 165 290 48 357 77 347 172 171 114 27 202 211 225 275 215 167 68 109 121
358 357 356 358 3 13 34 10 4 337 300 326 349 256 310 292 316 250 250 271 321 306 257 252 257 197 175 156 219 73 65 120 86 257 349 279 298 299 284 45 102 140 144 204
349 358 357 355 1 8 5 3 352 340 278 292 299 322 316 300 319 292 284 277 194 275 293 241 243 189 270 210 242 202 121 95 95 193 4 215 248 310 98 116 78 6 64 97
342 346 357 355 349 -0 5 3 358 334 285 310 297 312 304 311 308 262 262 283 275 285 219 67 15 340 351 245 243 227 259 128 77 122 114 300 309 259 181 174 223 168 125 135
348 344 343 352 347 340 358 345 344 324 318 249 327 323 286 282 305 318 270 283 310 166 100 98 165 209 223 291 108 53 47 70 122 136 143 197 234 261 285 207 317 191 149 156
347 347 344 342 347 342 343 14 318 301 276 275 297 257 293 301 325 267 299 331 342 216 117 143 165 231 198 220 197 166 96 27 142 157 157 283 237 195 231 120 238 154 162 163
345 349 347 342 339 340 336 343 280 351 281 276 272 263 269 283 278 268 326 332 323 344 124 152 206 193 215 173 199 180 165 146 186 122 75 262 155 134 205 198 77 192 178 177
334 338 341 341 338 333 325 320 307 297 270 267 284 278 269 262 262 278 284 278 312 283 47 231 135 216 132 150 256 315 185 177 179 166 205 224 173 161 159 129 180 178 183 178
322 327 331 333 332 328 323 312 315 318 285 296 281 280 284 278 261 252 243 268 246 174 5 331 253 215 136 170 245 250 290 134 131 111 266 207 190 192 198 228 210 172 182 172
310 314 320 324 326 323 317 311 307 295 269 264 280 284 273 268 243 232 235 246 257 277 305 277 233 204 197 200 214 198 208 135 148 282 43 93 179 209 204 198 176 161 164 167
301 304 310 315 317 316 310 310 296 274 224 283 292 291 284 281 258 250 235 237 246 256 266 237 239 197 148 218 67 286 193 172 139 208 199 168 181 177 175 177 183 183 181 182
300 302 304 308 311 313 317 311 314 261 215 285 284 287 287 278 260 247 237 239 241 224 215 218 241 223 143 116 187 261 237 219 213 179 182 187 171 170 175 177 178 192 195 188
303 303 306 305 303 297 280 260 267 221 306 309 286 263 268 295 272 235 233 229 217 215 218 229 249 207 167 114 186 227 218 294 255 227 174 156 168 175 172 163 157 173 202 197
303 309 307 305 295 285 276 286 269 266 264 235 268 263 285 335 243 198 208 213 207 217 212 191 181 203 116 210 233 251 260 286 180 166 178 171 173 174 173 179 171 172 181 197
306 311 313 301 285 277 317 313 293 288 216 231 246 255 283 350 343 277 193 189 165 187 166 192 163 173 210 210 188 220 230 210 174 161 185 177 176 181 182 185 180 175 167 162
315 317 305 271 246 315 312 284 214 205 210 232 243 258 277 322 350 305 337 189 174 160 213 142 149 213 216 205 197 204 220 187 172 147 146 167 179 183 186 187 186 182 175 171
332 302 269 286 299 305 248 254 229 174 232 228 242 249 247 273 245 269 290 313 250 136 207 150 194 235 204 206 211 211 200 197 185 188 172 177 179 184 189 194 196 195 193 188
303 297 293 303 298 260 228 250 272 226 239 254 252 262 245 265 196 247 301 249 271 173 147 118 192 256 200 209 214 211 203 195 199 192 189 181 190 194 189 182 188 195 197 197
317 299 284 262 267 280 283 301 278 263 338 350 329 314 279 251 201 216 218 244 247 328 132 157 86 350 347 2 222 232 219 210 202 198 183 182 175 179 179 167 167 173 189 194
311 310 292 272 286 6 235 276 321 338 336 331 313 284 286 298 243 216 297 309 221 170 116 74 354 339 338 334 303 247 227 214 205 196 189 179 174 172 180 189 189 190 192 198
281 281 257 258 77 306 286 310 310 352 339 329 305 287 273 299 286 89 270 264 168 59 71 346 323 336 345 342 317 269 210 197 189 185 179 174 173 174 170 173 178 188 196 200
249 240 266 280 282 287 305 320 306 352 342 334 294 302 319 4 334 334 324 348 33 7 337 312 335 347 357 351 325 250 195 190 181 172 171 171 172 170 167 162 167 171 176 186
253 254 258 270 280 274 292 314 318 338 329 340 333 359 334 302 343 37 36 358 301 296 297 338 354 12 8 17 20 201 189 192 185 177 176 176 176 177 177 169 164 163 163 163